[[{"header":{"parameterUnit":"m.s-1","parameterCategory":1,"la1":30.2992,"la2":30.254,"lo1":-89.0895,"lo2":-89.0443,"dy":0.0025,"dx":0.0025,"nx":19,"ny":19,"refTime":"2026-03-14T21:00:00:Z","depth":0,"parameterNumber":2,"parameterNumberName":"U-component_of_WINDS"},"data":[0,0,0,0.5114,0.5108,0.4763,0.4761,0.4377,0.4374,0,0,0,0,0,0,0,0,0,0,0,0.5262,0.5261,0.5114,0.5107,0.4763,0.4761,0.4378,0.4374,0,0,0,0,0,0,0,0,0,0,0,0.5262,0.5261,0.526,0.5106,0.4763,0.4761,0.4378,0.4615,0,0,0,0,0,0,0,0,0,0,0.4939,0.5123,0.5261,0.526,0.5105,0.4764,0.4761,0.4626,0.46,0.4562,0,0.4549,0,0.4458,0.4353,0.4352,0,0,0,0.5069,0.5144,0.5012,0.526,0.5102,0.4765,0.4908,0.4611,0.4583,0.4529,0.4543,0.4527,0.4451,0.4351,0.435,0.4281,0.4282,0,0,0.5088,0.5221,0.5032,0.4996,0.5066,0.4919,0.4898,0.4593,0.4612,0.4542,0.4517,0.4445,0.4349,0.4347,0.4279,0.4281,0,0,0,0.5169,0.5236,0.5109,0.5014,0.4948,0.491,0.4885,0.4625,0.4574,0.4512,0.444,0.4348,0.4344,0.4277,0.428,0.4486,0,0,0,0.5178,0.5282,0.5119,0.5197,0.4956,0.4785,0.4927,0.4595,0.4556,0.4442,0.4347,0.4341,0.4276,0.4279,0.4477,0.4558,0,0,0,0.5268,0.5292,0.526,0.5205,0.5063,0.4787,0.4716,0.4584,0.4515,0.4352,0.434,0.4274,0.4278,0.4468,0.4544,0.4581,0,0,0,0.5399,0.544,0.5266,0.5282,0.5067,0.4922,0.4717,0.4598,0.4484,0.4346,0.4276,0.428,0.4466,0.4535,0.4573,0.4636,0.4676,0,0,0.5523,0.546,0.5459,0.5293,0.5215,0.4963,0.4909,0.4671,0.4527,0.4368,0.4365,0.448,0.4543,0.4579,0.4853,0.4887,0,0,0,0.5543,0.5545,0.5495,0.54,0.5229,0.5086,0.4846,0.4758,0.4619,0.4478,0.4499,0.4532,0.4547,0.4571,0.4598,0.4602,0.4297,0.4297,0.4296,0.5905,0.5732,0.5719,0.5505,0.5414,0.5171,0.5077,0.4915,0.4755,0.4765,0.4715,0.4905,0.4938,0.4958,0.4964,0.4735,0.4736,0.4736,0.4737,0.607,0.6045,0.5846,0.5763,0.5576,0.5498,0.5264,0.5156,0.5051,0.4926,0.493,0.4808,0.5,0.4995,0.4751,0.4748,0.4746,0.4745,0.4744,0.6286,0.6244,0.6147,0.5994,0.5894,0.5671,0.5585,0.5413,0.5249,0.5255,0.5183,0.5179,0.5153,0.5234,0.5235,0.5236,0.5236,0.5236,0.5237,0.6548,0.6432,0.6386,0.6216,0.6134,0.6004,0.5763,0.5673,0.5529,0.541,0.5408,0.5249,0.5054,0.5008,0.5246,0.5244,0.5243,0.5242,0.5242,0.6776,0.67,0.6631,0.6552,0.6336,0.6249,0.6036,0.587,0.577,0.5733,0.5573,0.5459,0.5376,0.5352,0.5312,0.5614,0.5614,0.5614,0.5614,0.6957,0.6904,0.6797,0.6681,0.6546,0.635,0.6268,0.6082,0.5873,0.58,0.5732,0.5665,0.565,0.5575,0.5546,0.5507,0.5851,0.5851,0.5851,0.7087,0.7014,0.6983,0.6793,0.6614,0.6461,0.6379,0.6245,0.5991,0.5857,0.5738,0.5728,0.5618,0.5593,0.5453,0.5413,0.5336,0,0]},{"header":{"parameterUnit":"m.s-1","parameterCategory":1,"la1":30.2992,"la2":30.254,"lo1":-89.0895,"lo2":-89.0443,"dy":0.0025,"dx":0.0025,"nx":19,"ny":19,"refTime":"2026-03-14T21:00:00:Z","depth":0,"parameterNumber":3,"parameterNumberName":"V-component_of_WINDS"},"data":[0,0,0,6.8714,6.872,6.9038,6.9039,6.9407,6.941,0,0,0,0,0,0,0,0,0,0,0,6.8599,6.8601,6.8713,6.8721,6.9038,6.904,6.9406,6.941,0,0,0,0,0,0,0,0,0,0,0,6.8598,6.8601,6.8603,6.8722,6.9038,6.904,6.9405,6.9179,0,0,0,0,0,0,0,0,0,0,6.8876,6.8752,6.86,6.8603,6.8724,6.9037,6.904,6.9168,6.9193,6.9247,0,6.9293,0,6.9358,6.9432,6.9433,0,0,0,6.8734,6.8731,6.8836,6.8603,6.8726,6.9037,6.8899,6.9183,6.921,6.9279,6.9299,6.9314,6.9364,6.9434,6.9436,6.9714,6.9714,0,0,6.8717,6.8644,6.8817,6.8853,6.8806,6.8888,6.8908,6.92,6.9214,6.93,6.9323,6.937,6.9437,6.9439,6.9713,6.9714,0,0,0,6.8657,6.8631,6.873,6.8837,6.8897,6.8897,6.892,6.9201,6.924,6.9327,6.9374,6.9438,6.9443,6.9713,6.9714,6.9675,0,0,0,6.8647,6.8597,6.8721,6.868,6.8891,6.9054,6.8914,6.922,6.9255,6.9372,6.9439,6.9446,6.9712,6.9713,6.9675,6.9666,0,0,0,6.8585,6.8589,6.8629,6.8675,6.881,6.9051,6.9107,6.9229,6.9283,6.9434,6.9447,6.9712,6.9713,6.9674,6.9666,6.9718,0,0,0,6.8496,6.8587,6.8627,6.8747,6.8807,6.9027,6.9106,6.9273,6.9397,6.944,6.9712,6.9714,6.9674,6.9666,6.9717,6.9746,6.9752,0,0,6.857,6.8593,6.867,6.8715,6.891,6.8984,6.9174,6.9354,6.9433,6.9615,6.9623,6.9675,6.9666,6.9718,6.9819,6.9823,0,0,0,6.8668,6.8722,6.879,6.8908,6.9052,6.9174,6.9336,6.9404,6.9563,6.9513,6.9712,6.9709,6.9742,6.9758,6.9762,6.9794,6.9719,6.9719,6.9719,6.8661,6.8764,6.8897,6.9038,6.9152,6.9321,6.9421,6.9541,6.9606,6.9652,6.9704,6.9753,6.977,6.9774,6.9806,6.9731,6.9731,6.9731,6.9731,6.8776,6.8867,6.8959,6.9121,6.9228,6.9364,6.9531,6.9574,6.9714,6.9721,6.9755,6.9749,6.9775,6.9809,6.9729,6.9729,6.9729,6.973,6.973,6.8779,6.8841,6.8927,6.9111,6.9241,6.9381,6.9514,6.9606,6.9693,6.9727,6.9792,6.9793,6.9803,6.9753,6.9754,6.9754,6.9754,6.9754,6.9754,6.8747,6.8846,6.8948,6.9114,6.9203,6.9333,6.9508,6.9598,6.9721,6.9777,6.9778,6.9837,6.9762,6.9738,6.9757,6.9757,6.9756,6.9756,6.9756,6.8817,6.8818,6.8975,6.9066,6.9269,6.9392,6.9512,6.9688,6.9777,6.9839,6.9895,6.9825,6.9853,6.9851,6.9832,6.9874,6.9874,6.9874,6.9874,6.8817,6.8844,6.9028,6.9166,6.9314,6.9439,6.9612,6.975,6.9891,6.9952,6.9961,6.9946,6.994,6.9972,6.9967,6.995,7.0022,7.0022,7.0022,6.8865,6.8912,6.904,6.9184,6.9352,6.9492,6.9658,6.9811,6.9973,7.003,7.0001,6.9995,6.9972,6.9959,7.0007,6.9998,6.9969,0,0]}]]